[[{"header":{"parameterUnit":"m.s-1","parameterCategory":2,"la1":30.2991,"la2":30.254,"lo1":-89.0895,"lo2":-89.0444,"dy":0.0017,"dx":0.0017,"nx":28,"ny":28,"refTime":"2024-10-22T03:00:00:Z","depth":"0","parameterNumber":2,"parameterNumberName":"U-component_of_CURRENTS"},"data":[0,0,0,0,0,0,0,0,0,0,0,0,0,0,0,0,0,0,0,0,0,0,0,0,0,0,0,0,0,0,0,0,0,0,0,0,0,0,0,0,0,0,0,0,0,0,0,0,0,0,0,0,0,0,0,0,0,0,-0.3754,-0.3754,0,-0.3688,-0.3687,-0.3687,-0.3637,-0.3637,-0.3636,-0.3636,-0.3588,-0.3587,-0.3586,0,0,0,0,0,0,0,0,0,0,0,0,0,-0.3775,-0.3775,-0.3754,-0.3754,-0.3753,-0.3688,-0.3687,-0.3686,-0.3637,-0.3637,-0.3636,-0.3636,-0.3589,-0.3587,-0.3586,0,0,0,0,0,0,0,0,0,0,0,0,0,-0.3742,-0.3775,-0.3754,-0.3721,-0.3718,-0.3689,-0.3687,-0.3686,-0.3637,-0.3637,-0.3636,-0.3636,-0.3589,-0.3587,-0.3586,-0.3587,0,0,-0.3582,-0.3581,0,0,0,0,0,0,0,0,-0.3744,-0.3741,-0.3727,-0.3724,-0.372,-0.3671,-0.3677,-0.3654,-0.3637,-0.3666,-0.3636,-0.3635,-0.3619,-0.3615,-0.3602,-0.3585,-0.3583,-0.3581,-0.3581,-0.358,-0.358,0,0,0,0,0,0,0,-0.3746,-0.3743,-0.3727,-0.3726,-0.3722,-0.3689,-0.3684,-0.3672,-0.3646,-0.3664,-0.366,-0.3655,-0.3617,-0.3603,-0.36,-0.3582,-0.3582,-0.358,-0.3579,-0.3579,-0.3493,-0.3491,0,0,0,0,0,0,-0.3761,-0.3746,-0.3729,-0.3725,-0.3732,-0.3689,-0.3683,-0.3686,-0.3645,-0.3639,-0.3656,-0.3653,-0.3606,-0.3602,-0.3598,-0.3499,-0.358,-0.3579,-0.3578,-0.3494,-0.3492,-0.3491,0,0,0,0,0,0,-0.3762,-0.3761,-0.3732,-0.3734,-0.3728,-0.369,-0.3693,-0.3685,-0.3662,-0.3639,-0.3633,-0.364,-0.3605,-0.36,-0.3573,-0.3501,-0.3578,-0.3577,-0.3496,-0.3493,-0.3492,-0.3364,0,0,0,0,0,0,-0.3763,-0.3762,-0.3755,-0.3736,-0.3729,-0.3698,-0.3693,-0.3684,-0.3661,-0.3657,-0.3624,-0.3619,-0.3604,-0.3576,-0.3572,-0.35,-0.3576,-0.3497,-0.3495,-0.3492,-0.337,-0.3357,-0.3347,0,0,0,0,0,-0.3764,-0.3737,-0.3755,-0.3752,-0.3726,-0.3697,-0.3689,-0.3659,-0.3661,-0.3639,-0.3623,-0.362,-0.3555,-0.3574,-0.357,-0.3495,-0.3499,-0.3495,-0.3492,-0.3375,-0.336,-0.3347,0,0,0,0,0,0,-0.3714,-0.373,-0.3749,-0.3722,-0.3714,-0.3688,-0.3652,-0.3658,-0.3628,-0.3625,-0.3612,-0.3605,-0.355,-0.3558,-0.3579,-0.3467,-0.3523,-0.3518,-0.3434,-0.342,-0.3409,-0.3406,-0.3574,0,0,0,0,0,-0.3714,-0.371,-0.3719,-0.3694,-0.369,-0.3681,-0.3663,-0.366,-0.3638,-0.3624,-0.3601,-0.3576,-0.3535,-0.3509,-0.3489,-0.3437,-0.3448,-0.3387,-0.3375,-0.3365,-0.3362,-0.3332,-0.3317,-0.348,-0.348,-0.348,0,0,-0.3691,-0.3692,-0.3692,-0.3686,-0.3671,-0.362,-0.3666,-0.3639,-0.3585,-0.3626,-0.3539,-0.3544,-0.3519,-0.3447,-0.3421,-0.344,-0.3321,-0.3361,-0.3352,-0.3355,-0.3327,-0.3311,-0.3297,-0.3478,-0.3478,-0.3479,0,0,-0.3587,-0.3643,-0.3582,-0.3582,-0.3571,-0.3576,-0.3572,-0.3559,-0.3542,-0.3488,-0.3493,-0.3458,-0.3402,-0.3358,-0.3329,-0.3251,-0.3272,-0.325,-0.3169,-0.3139,-0.3125,-0.3113,-0.3088,-0.3074,-0.3231,-0.3231,-0.323,0,-0.3542,-0.3497,-0.3556,-0.3486,-0.3482,-0.3549,-0.3484,-0.3465,-0.3442,-0.344,-0.344,-0.3368,-0.3339,-0.325,-0.3208,-0.3215,-0.3226,-0.3214,-0.3121,-0.311,-0.31,-0.3077,-0.3064,-0.3224,-0.3225,-0.3225,-0.3226,0,-0.3372,-0.3362,-0.3326,-0.3281,-0.3281,-0.3255,-0.3268,-0.3267,-0.3277,-0.3269,-0.3221,-0.3195,-0.3162,-0.3126,-0.3127,-0.3042,-0.3083,-0.3118,-0.315,-0.3075,-0.3057,-0.3045,-0.3215,-0.3217,-0.3219,-0.3221,0,0,-0.3191,-0.3211,-0.3191,-0.3202,-0.32,-0.3196,-0.3135,-0.3127,-0.3118,-0.3082,-0.3045,-0.2949,-0.3001,-0.2975,-0.2986,-0.2938,-0.2846,-0.2992,-0.2993,-0.2957,-0.2794,-0.2705,-0.2685,-0.2879,-0.2876,-0.2875,-0.2803,0,-0.3035,-0.2943,-0.2973,-0.2912,-0.2899,-0.2986,-0.294,-0.2955,-0.2973,-0.296,-0.2948,-0.2915,-0.2922,-0.2923,-0.287,-0.2885,-0.2816,-0.2863,-0.2883,-0.2883,-0.2804,-0.2668,-0.2556,-0.2473,-0.2792,-0.279,-0.2789,0,-0.2826,-0.2827,-0.2756,-0.2838,-0.2833,-0.2798,-0.2849,-0.2821,-0.2837,-0.2855,-0.2841,-0.2868,-0.2804,-0.2826,-0.2757,-0.2803,-0.2775,-0.2764,-0.2762,-0.2719,-0.2772,-0.2606,-0.2441,-0.2436,-0.2772,-0.2774,-0.2775,0,-0.2708,-0.2682,-0.2662,-0.2672,-0.273,-0.2727,-0.2756,-0.2785,-0.2803,-0.2807,-0.2827,-0.2786,-0.2783,-0.2737,-0.2711,-0.2745,-0.2643,-0.2691,-0.257,-0.2566,-0.249,-0.2481,-0.2311,-0.2599,-0.2599,-0.2599,-0.2599,0,-0.2559,-0.2539,-0.2621,-0.2613,-0.2612,-0.2673,-0.2674,-0.2703,-0.2746,-0.2752,-0.2782,-0.276,-0.2766,-0.2726,-0.2688,-0.2581,-0.2617,-0.2516,-0.2518,-0.244,-0.2428,-0.2442,-0.249,-0.2596,-0.2597,-0.2598,-0.2598,0,-0.2421,-0.2468,-0.2468,-0.2539,-0.2561,-0.2562,-0.2646,-0.267,-0.2712,-0.2721,-0.2725,-0.2746,-0.268,-0.2662,-0.259,-0.2546,-0.2405,-0.2405,-0.2311,-0.2299,-0.2174,-0.2221,-0.2082,-0.202,-0.2254,-0.2251,-0.2248,0,-0.234,-0.2326,-0.2408,-0.2434,-0.2462,-0.2499,-0.2543,-0.2627,-0.2669,-0.2684,-0.2688,-0.2644,-0.2545,-0.2419,-0.2343,-0.2231,-0.2267,-0.2091,-0.2099,-0.2097,-0.2153,-0.2203,-0.2166,-0.1957,-0.1952,-0.1948,-0.1945,0,-0.2191,-0.2227,-0.2245,-0.2324,-0.2374,-0.2409,-0.2477,-0.2469,-0.2554,-0.2534,-0.2447,-0.2348,-0.229,-0.2114,-0.2031,-0.1959,-0.2038,-0.2006,-0.2022,-0.1891,-0.1917,-0.1882,-0.21,-0.1911,-0.1914,-0.1917,-0.1919,-0.192,-0.2071,-0.207,-0.213,-0.2186,-0.2237,-0.2219,-0.2117,-0.2167,-0.2091,-0.1906,-0.209,-0.1838,-0.1984,-0.1814,-0.1748,-0.1663,-0.175,-0.1638,-0.1692,-0.1742,-0.1665,-0.1793,-0.1599,-0.1601,-0.1602,-0.1603,-0.1604,0,-0.191,-0.1946,-0.2004,-0.1997,-0.1944,-0.2052,-0.2005,-0.1834,-0.1565,-0.1493,-0.1345,-0.1367,-0.1326,-0.1424,-0.1463,-0.1393,-0.1379,-0.1387,-0.1444,-0.1418,-0.1527,-0.1496,-0.1246,-0.1246,-0.1246,-0.1246,-0.1246,-0.1247,-0.1832,-0.1834,-0.1888,-0.1722,-0.1671,-0.1476,-0.135,-0.1116,-0.0982,-0.0655,-0.0531,-0.0573,-0.0961,-0.136,-0.1378,-0.131,-0.1312,-0.1258,-0.1311,-0.1426,-0.1455,-0.1483,-0.1461,-0.1208,-0.1208,-0.1135,-0.1135,-0.1134]},{"header":{"parameterUnit":"m.s-1","parameterCategory":2,"la1":30.2991,"la2":30.254,"lo1":-89.0895,"lo2":-89.0444,"dy":0.0017,"dx":0.0017,"nx":28,"ny":28,"refTime":"2024-10-22T03:00:00:Z","depth":"0","parameterNumber":3,"parameterNumberName":"V-component_of_CURRENTS"},"data":[0,0,0,0,0,0,0,0,0,0,0,0,0,0,0,0,0,0,0,0,0,0,0,0,0,0,0,0,0,0,0,0,0,0,0,0,0,0,0,0,0,0,0,0,0,0,0,0,0,0,0,0,0,0,0,0,0,0,-0.0057,-0.0056,0,0.0068,0.007,0.0072,0.0182,0.0183,0.0184,0.0185,0.0406,0.0411,0.0416,0,0,0,0,0,0,0,0,0,0,0,0,0,-0.0168,-0.0167,-0.0057,-0.0056,-0.0054,0.0068,0.007,0.0072,0.0182,0.0183,0.0185,0.0186,0.0404,0.041,0.0416,0,0,0,0,0,0,0,0,0,0,0,0,0,-0.0086,-0.0166,-0.0057,0.0013,0.002,0.0067,0.007,0.0073,0.0182,0.0183,0.0185,0.0186,0.0402,0.0409,0.0417,0.0433,0,0,0.044,0.0443,0,0,0,0,0,0,0,0,-0.0091,-0.0082,0.0001,0.0008,0.0016,0.0108,0.0112,0.0197,0.0182,0.0124,0.0185,0.0187,0.0312,0.0327,0.0351,0.0444,0.0453,0.044,0.0445,0.0448,0.045,0,0,0,0,0,0,0,-0.0097,-0.0086,-0.0004,0.0002,0.0011,0.0049,0.0062,0.0128,0.0213,0.0129,0.0137,0.0145,0.0317,0.0343,0.0357,0.0457,0.044,0.0447,0.0451,0.0454,0.0588,0.0587,0,0,0,0,0,0,-0.0122,-0.0092,-0.0008,-0.0,-0.0039,0.0049,0.0064,0.008,0.021,0.023,0.0143,0.0149,0.033,0.0348,0.0365,0.0374,0.0448,0.0455,0.0459,0.0589,0.0587,0.0586,0,0,0,0,0,0,-0.0125,-0.0116,-0.0013,-0.0046,-0.0031,0.0049,0.0066,0.0082,0.0106,0.0219,0.0242,0.0151,0.0331,0.0355,0.0416,0.0384,0.0458,0.0465,0.059,0.0588,0.0587,0.0404,0,0,0,0,0,0,-0.0128,-0.0117,-0.0124,-0.0048,-0.003,0.0002,0.0065,0.0083,0.0107,0.0117,0.0233,0.0255,0.0334,0.0404,0.0423,0.0396,0.0471,0.0591,0.0589,0.0587,0.0411,0.0396,0.0384,0,0,0,0,0,-0.0133,-0.0158,-0.0125,-0.0115,-0.0039,0.0,0.0013,0.0077,0.0106,0.0107,0.0186,0.0252,0.0407,0.0409,0.0432,0.0406,0.0592,0.059,0.0588,0.0417,0.0399,0.0384,0,0,0,0,0,0,-0.0214,-0.0147,-0.0109,-0.0112,-0.0063,0.0018,0.0014,0.0062,0.0123,0.0132,0.0242,0.0269,0.0309,0.0385,0.0384,0.0441,0.0509,0.0511,0.0372,0.0356,0.0342,0.034,0.0477,0,0,0,0,0,-0.0236,-0.0232,-0.0157,-0.0161,-0.0144,-0.0067,-0.0047,0.0,0.0066,0.0094,0.0174,0.0257,0.0317,0.0357,0.0427,0.0458,0.0532,0.0458,0.0444,0.0432,0.0446,0.0506,0.0499,0.058,0.058,0.058,0,0,-0.0269,-0.0233,-0.023,-0.0178,-0.0137,-0.0123,-0.0051,-0.0031,-0.0017,0.0108,0.0141,0.0212,0.0315,0.0347,0.0372,0.0408,0.0444,0.0429,0.0417,0.044,0.0503,0.0496,0.0489,0.0578,0.0579,0.0579,0,0,-0.0335,-0.0302,-0.0316,-0.0283,-0.0232,-0.0184,-0.0185,-0.0109,-0.0075,-0.0034,0.0051,0.0099,0.0202,0.0262,0.0306,0.0261,0.0366,0.0282,0.0216,0.0272,0.0265,0.0261,0.0322,0.0325,0.0279,0.0278,0.0278,0,-0.0382,-0.0372,-0.0317,-0.032,-0.0303,-0.0219,-0.0225,-0.0187,-0.01,-0.0073,-0.0044,0.0091,0.016,0.0209,0.0189,0.0228,0.0288,0.026,0.0251,0.0249,0.0247,0.0312,0.0317,0.0269,0.027,0.0271,0.0272,0,-0.0439,-0.0436,-0.045,-0.0416,-0.0396,-0.0392,-0.0328,-0.0304,-0.0256,-0.0198,-0.0143,-0.0052,0.0037,0.0047,0.0105,0.0126,0.0179,0.0218,0.0284,0.0228,0.03,0.0308,0.0256,0.026,0.0262,0.0265,0,0,-0.0528,-0.0496,-0.0498,-0.0492,-0.0443,-0.0429,-0.0423,-0.0374,-0.0354,-0.0289,-0.0254,-0.0185,-0.0121,-0.0065,0.0006,0.0049,0.0062,0.012,0.0127,0.0166,0.0197,0.0267,0.0285,0.0098,0.0099,0.01,0.0242,0,-0.0584,-0.0612,-0.0574,-0.0594,-0.0599,-0.053,-0.0524,-0.0473,-0.0413,-0.0362,-0.0279,-0.0219,-0.0168,-0.013,-0.0086,0.0043,0.0082,0.0022,0.0262,0.027,0.0326,0.0296,0.0353,0.0489,0.0252,0.0253,0.0254,0,-0.0639,-0.065,-0.0682,-0.0662,-0.0658,-0.0657,-0.0614,-0.0594,-0.0509,-0.0459,-0.0388,-0.0302,-0.0225,-0.018,-0.0009,-0.0045,0.0057,0.0146,0.0155,0.03,0.0357,0.0515,0.0515,0.0659,0.0269,0.0268,0.0267,0,-0.071,-0.0719,-0.0745,-0.0741,-0.0713,-0.0713,-0.0693,-0.0624,-0.0597,-0.0513,-0.0468,-0.0361,-0.028,-0.0159,0.0027,0.0009,0.0232,0.0233,0.0392,0.0398,0.0539,0.0557,0.0701,0.0341,0.034,0.034,0.034,0,-0.0773,-0.0793,-0.0782,-0.0798,-0.0827,-0.078,-0.0783,-0.074,-0.0667,-0.0584,-0.052,-0.0427,-0.0268,-0.0114,0.0021,0.0253,0.0231,0.039,0.0442,0.0475,0.0485,0.0694,0.0737,0.0345,0.0344,0.0343,0.0342,0,-0.0837,-0.0827,-0.0862,-0.0859,-0.086,-0.088,-0.085,-0.0824,-0.0758,-0.0644,-0.0615,-0.0466,-0.0253,-0.008,0.0156,0.0272,0.057,0.0546,0.0579,0.0631,0.0881,0.091,0.1139,0.1239,0.0724,0.0726,0.0729,0,-0.0867,-0.0892,-0.0921,-0.0943,-0.0943,-0.096,-0.0945,-0.0882,-0.0794,-0.0627,-0.0531,-0.0361,-0.0157,0.0168,0.0383,0.0628,0.0722,0.0818,0.0781,0.0915,0.0986,0.1003,0.1071,0.0891,0.0895,0.0897,0.09,0,-0.0925,-0.0935,-0.0967,-0.1008,-0.1012,-0.0972,-0.0905,-0.0845,-0.0679,-0.0532,-0.0243,-0.0106,0.0134,0.0421,0.0648,0.0791,0.0933,0.0881,0.102,0.1134,0.1165,0.128,0.0774,0.0924,0.0922,0.092,0.0919,0.0918,-0.0962,-0.1008,-0.1032,-0.1054,-0.1017,-0.0857,-0.0771,-0.0611,-0.0385,-0.0031,0.0062,0.0367,0.0527,0.0842,0.0979,0.1224,0.1158,0.1318,0.1345,0.1351,0.1445,0.0992,0.1195,0.1194,0.1193,0.1192,0.1192,0,-0.0995,-0.1021,-0.1063,-0.1003,-0.0866,-0.0853,-0.0635,-0.0457,-0.0085,0.0204,0.0543,0.0937,0.1154,0.1258,0.1498,0.1676,0.1701,0.1761,0.1797,0.1846,0.1463,0.1467,0.1738,0.1738,0.1738,0.1737,0.1737,0.1737,-0.1015,-0.1059,-0.1065,-0.0831,-0.0736,-0.0473,-0.0297,-0.0016,0.024,0.0769,0.1078,0.1281,0.1412,0.1791,0.204,0.2072,0.2228,0.2215,0.2291,0.2015,0.1975,0.1937,0.1952,0.2321,0.2321,0.2684,0.2687,0.2689]}],[{"header":{"parameterUnit":"m.s-1","parameterCategory":2,"la1":30.2991,"la2":30.254,"lo1":-89.0895,"lo2":-89.0444,"dy":0.0017,"dx":0.0017,"nx":28,"ny":28,"refTime":"2024-10-22T03:00:00:Z","depth":"2","parameterNumber":2,"parameterNumberName":"U-component_of_CURRENTS"},"data":[0,0,0,0,0,0,0,0,0,0,0,0,0,0,0,0,0,0,0,0,0,0,0,0,0,0,0,0,0,0,0,0,0,0,0,0,0,0,0,0,0,0,0,0,0,0,0,0,0,0,0,0,0,0,0,0,0,0,-0.2571,-0.2571,0,-0.2599,-0.2599,-0.26,-0.2604,-0.2604,-0.2604,-0.2603,-0.2633,-0.2634,-0.2635,0,0,0,0,0,0,0,0,0,0,0,0,0,-0.2485,-0.2487,-0.2571,-0.2572,-0.2572,-0.2599,-0.2599,-0.26,-0.2604,-0.2604,-0.2603,-0.2603,-0.2632,-0.2633,-0.2635,0,0,0,0,0,0,0,0,0,0,0,0,0,-0.2518,-0.2487,-0.2571,-0.2577,-0.2578,-0.2599,-0.2599,-0.26,-0.2604,-0.2604,-0.2603,-0.2603,-0.2632,-0.2633,-0.2635,-0.2651,0,0,-0.2639,-0.264,0,0,0,0,0,0,0,0,-0.2517,-0.2522,-0.2576,-0.2577,-0.2578,-0.2598,-0.258,-0.2617,-0.2604,-0.2594,-0.2603,-0.2603,-0.2622,-0.2624,-0.2629,-0.2652,-0.2653,-0.2639,-0.264,-0.2641,-0.2641,0,0,0,0,0,0,0,-0.2514,-0.252,-0.2582,-0.2577,-0.2578,-0.2566,-0.2571,-0.2587,-0.2609,-0.2595,-0.2595,-0.2599,-0.2622,-0.2628,-0.263,-0.2654,-0.2639,-0.2641,-0.2642,-0.2642,-0.2665,-0.2664,0,0,0,0,0,0,-0.2514,-0.2519,-0.2581,-0.2583,-0.2546,-0.2568,-0.2574,-0.2592,-0.2609,-0.2611,-0.2599,-0.2599,-0.2626,-0.2628,-0.2631,-0.2644,-0.2641,-0.2642,-0.2643,-0.2665,-0.2665,-0.2664,0,0,0,0,0,0,-0.2512,-0.252,-0.258,-0.255,-0.2557,-0.2571,-0.2591,-0.2592,-0.2611,-0.2612,-0.2615,-0.2617,-0.2626,-0.2629,-0.2645,-0.2645,-0.2643,-0.2644,-0.2665,-0.2665,-0.2664,-0.2674,0,0,0,0,0,0,-0.251,-0.252,-0.2533,-0.2551,-0.2559,-0.2598,-0.2591,-0.2593,-0.2613,-0.2613,-0.2628,-0.2629,-0.2626,-0.2643,-0.2646,-0.2647,-0.2646,-0.2666,-0.2665,-0.2665,-0.2674,-0.2674,-0.2674,0,0,0,0,0,-0.2507,-0.2523,-0.2534,-0.2541,-0.2578,-0.2599,-0.2602,-0.2609,-0.2614,-0.2624,-0.2628,-0.263,-0.2641,-0.2644,-0.2648,-0.265,-0.2666,-0.2665,-0.2665,-0.2674,-0.2674,-0.2674,0,0,0,0,0,0,-0.2492,-0.2526,-0.2538,-0.2565,-0.2584,-0.26,-0.2607,-0.262,-0.2633,-0.2631,-0.2637,-0.2639,-0.2647,-0.2649,-0.2653,-0.2652,-0.265,-0.265,-0.2656,-0.2656,-0.2656,-0.2646,-0.2647,0,0,0,0,0,-0.2497,-0.2516,-0.2548,-0.2566,-0.258,-0.2599,-0.261,-0.2618,-0.263,-0.2636,-0.2647,-0.2649,-0.2647,-0.2653,-0.2653,-0.2666,-0.2649,-0.2665,-0.2665,-0.2665,-0.2658,-0.2636,-0.2633,-0.2662,-0.2662,-0.2662,0,0,-0.2493,-0.2514,-0.2524,-0.2563,-0.2578,-0.2597,-0.2605,-0.2623,-0.2632,-0.2637,-0.2654,-0.2654,-0.265,-0.2652,-0.2656,-0.2656,-0.2646,-0.2664,-0.2664,-0.2657,-0.2635,-0.2632,-0.263,-0.2662,-0.2662,-0.2662,0,0,-0.2486,-0.2519,-0.2531,-0.2554,-0.2581,-0.2596,-0.2607,-0.2634,-0.2642,-0.266,-0.2654,-0.2653,-0.2671,-0.2656,-0.2652,-0.2654,-0.2646,-0.2659,-0.2656,-0.2635,-0.2632,-0.263,-0.2601,-0.2596,-0.2661,-0.2661,-0.2661,0,-0.2479,-0.2503,-0.2536,-0.2555,-0.2568,-0.2599,-0.2613,-0.2629,-0.2655,-0.2657,-0.2663,-0.2664,-0.2664,-0.2653,-0.2648,-0.2653,-0.2641,-0.266,-0.2635,-0.2632,-0.263,-0.2601,-0.2595,-0.2661,-0.2661,-0.2661,-0.2661,0,-0.248,-0.2504,-0.2513,-0.2549,-0.257,-0.2584,-0.2616,-0.2635,-0.265,-0.266,-0.2662,-0.2659,-0.2655,-0.2655,-0.2654,-0.2636,-0.2632,-0.2637,-0.2637,-0.2627,-0.2597,-0.2591,-0.2661,-0.2661,-0.2661,-0.2661,0,0,-0.2438,-0.2502,-0.2501,-0.252,-0.2566,-0.2581,-0.2604,-0.2626,-0.2635,-0.2652,-0.2653,-0.2646,-0.2648,-0.2642,-0.2641,-0.2625,-0.2594,-0.2627,-0.2626,-0.26,-0.2544,-0.2455,-0.244,-0.2602,-0.2601,-0.2601,-0.2529,0,-0.2422,-0.2453,-0.2489,-0.2512,-0.253,-0.2571,-0.2591,-0.2615,-0.2633,-0.2645,-0.2638,-0.264,-0.2643,-0.2642,-0.2625,-0.2609,-0.2579,-0.2612,-0.2555,-0.2553,-0.2476,-0.243,-0.2257,-0.2171,-0.2523,-0.2522,-0.2522,0,-0.2393,-0.2423,-0.2444,-0.2497,-0.2509,-0.2528,-0.2559,-0.2583,-0.2609,-0.2623,-0.2625,-0.2632,-0.2616,-0.2618,-0.2572,-0.2598,-0.2564,-0.2546,-0.2543,-0.245,-0.2451,-0.2238,-0.2147,-0.2511,-0.2512,-0.2513,-0.2513,0,-0.2325,-0.2381,-0.2395,-0.2414,-0.2483,-0.2495,-0.2528,-0.2565,-0.2585,-0.2606,-0.2618,-0.2609,-0.2603,-0.2571,-0.2535,-0.2557,-0.2475,-0.25,-0.238,-0.2374,-0.2207,-0.2187,-0.2442,-0.2442,-0.2442,-0.2442,-0.2443,0,-0.2277,-0.2284,-0.2367,-0.2375,-0.2394,-0.2457,-0.2472,-0.2507,-0.2551,-0.2551,-0.2599,-0.2583,-0.2592,-0.2555,-0.2522,-0.2419,-0.2458,-0.2356,-0.234,-0.2204,-0.2186,-0.2471,-0.2475,-0.244,-0.244,-0.2441,-0.2441,0,-0.2183,-0.2239,-0.2261,-0.2338,-0.236,-0.237,-0.2444,-0.2451,-0.2515,-0.2515,-0.2523,-0.2559,-0.2502,-0.2488,-0.2426,-0.2385,-0.2309,-0.2258,-0.2094,-0.2059,-0.2229,-0.2235,-0.2122,-0.2118,-0.2114,-0.2112,-0.2109,0,-0.2131,-0.2135,-0.2216,-0.2223,-0.2253,-0.2292,-0.2308,-0.2405,-0.2415,-0.2473,-0.2452,-0.244,-0.2365,-0.2264,-0.2183,-0.2083,-0.2184,-0.1892,-0.1892,-0.2195,-0.2192,-0.2203,-0.2213,-0.1677,-0.1671,-0.1666,-0.1663,0,-0.2024,-0.2057,-0.2078,-0.2104,-0.2125,-0.2156,-0.2192,-0.2205,-0.2291,-0.2308,-0.2277,-0.223,-0.2135,-0.1949,-0.1855,-0.1787,-0.19,-0.1793,-0.2126,-0.1791,-0.1771,-0.177,-0.1795,-0.1621,-0.1625,-0.1628,-0.163,-0.1632,-0.1924,-0.1915,-0.1942,-0.1948,-0.1977,-0.1972,-0.1939,-0.1995,-0.1998,-0.1978,-0.2038,-0.192,-0.1866,-0.1616,-0.1513,-0.1459,-0.1596,-0.1546,-0.1562,-0.1582,-0.155,-0.1525,-0.1323,-0.1325,-0.1327,-0.1329,-0.133,0,-0.1779,-0.1778,-0.1777,-0.1772,-0.1728,-0.1807,-0.1811,-0.1752,-0.1695,-0.1726,-0.1683,-0.1466,-0.1326,-0.1294,-0.1129,-0.1095,-0.1107,-0.1066,-0.1085,-0.1125,-0.1161,-0.111,-0.0765,-0.0763,-0.0762,-0.0761,0,0,-0.1698,-0.1638,-0.1639,-0.151,-0.1504,-0.1401,-0.1369,-0.1333,-0.1319,-0.1245,-0.1204,-0.1271,-0.1249,-0.1013,-0.0945,-0.0829,-0.0975,-0.0787,-0.1236,-0.1297,-0.1332,-0.1425,-0.139,0,0,0,0,0]},{"header":{"parameterUnit":"m.s-1","parameterCategory":2,"la1":30.2991,"la2":30.254,"lo1":-89.0895,"lo2":-89.0444,"dy":0.0017,"dx":0.0017,"nx":28,"ny":28,"refTime":"2024-10-22T03:00:00:Z","depth":"2","parameterNumber":3,"parameterNumberName":"V-component_of_CURRENTS"},"data":[0,0,0,0,0,0,0,0,0,0,0,0,0,0,0,0,0,0,0,0,0,0,0,0,0,0,0,0,0,0,0,0,0,0,0,0,0,0,0,0,0,0,0,0,0,0,0,0,0,0,0,0,0,0,0,0,0,0,-0.0343,-0.0342,0,-0.0246,-0.0245,-0.0244,-0.0178,-0.0178,-0.0177,-0.0177,-0.0043,-0.004,-0.0037,0,0,0,0,0,0,0,0,0,0,0,0,0,-0.0424,-0.0423,-0.0343,-0.0342,-0.0341,-0.0247,-0.0245,-0.0244,-0.0178,-0.0178,-0.0177,-0.0177,-0.0044,-0.004,-0.0036,0,0,0,0,0,0,0,0,0,0,0,0,0,-0.0364,-0.0423,-0.0343,-0.0297,-0.0292,-0.0247,-0.0245,-0.0244,-0.0179,-0.0178,-0.0177,-0.0176,-0.0045,-0.0041,-0.0036,-0.0021,0,0,-0.0022,-0.002,0,0,0,0,0,0,0,0,-0.0368,-0.0361,-0.0305,-0.03,-0.0294,-0.0224,-0.0224,-0.0167,-0.0179,-0.0221,-0.0177,-0.0176,-0.01,-0.0091,-0.0075,-0.0015,-0.0009,-0.0021,-0.0018,-0.0016,-0.0015,0,0,0,0,0,0,0,-0.0372,-0.0365,-0.0305,-0.0304,-0.0297,-0.0264,-0.0256,-0.0213,-0.0165,-0.0218,-0.0213,-0.0202,-0.0097,-0.008,-0.0071,-0.0007,-0.0021,-0.0017,-0.0014,-0.0012,0.0091,0.0091,0,0,0,0,0,0,-0.0387,-0.0369,-0.0308,-0.0302,-0.033,-0.0264,-0.0254,-0.0247,-0.0166,-0.0154,-0.0203,-0.0199,-0.0088,-0.0077,-0.0066,-0.0025,-0.0016,-0.0012,-0.0009,0.0091,0.0091,0.0091,0,0,0,0,0,0,-0.0389,-0.0383,-0.0312,-0.0333,-0.0322,-0.0264,-0.0256,-0.0245,-0.0223,-0.0156,-0.0142,-0.0191,-0.0087,-0.0073,-0.0028,-0.002,-0.001,-0.0006,0.0091,0.0091,0.0091,0.0046,0,0,0,0,0,0,-0.0392,-0.0384,-0.0384,-0.0334,-0.0321,-0.0285,-0.0256,-0.0244,-0.0218,-0.0213,-0.0141,-0.0128,-0.0085,-0.0036,-0.0024,-0.0013,-0.0002,0.0092,0.0091,0.0091,0.0048,0.0045,0.0042,0,0,0,0,0,-0.0396,-0.0396,-0.0384,-0.0377,-0.0323,-0.0286,-0.0276,-0.0232,-0.0219,-0.0209,-0.0164,-0.013,-0.0028,-0.0032,-0.0018,-0.0006,0.0092,0.0091,0.0091,0.0049,0.0045,0.0042,0,0,0,0,0,0,-0.0427,-0.0388,-0.0374,-0.0362,-0.0328,-0.0274,-0.0263,-0.0236,-0.0194,-0.019,-0.0129,-0.0113,-0.0069,-0.0037,-0.0043,0.0022,0.0037,0.004,0.0,-0.0003,-0.0006,-0.0015,0.0002,0,0,0,0,0,-0.0437,-0.0431,-0.0385,-0.0378,-0.0363,-0.0316,-0.0296,-0.0269,-0.0226,-0.0206,-0.0157,-0.0107,-0.006,-0.0032,0.0012,0.0047,0.0085,0.0063,0.006,0.0057,0.0058,0.0115,0.0118,0.0091,0.0091,0.0091,0,0,-0.045,-0.0426,-0.0424,-0.0385,-0.0357,-0.0337,-0.0302,-0.0277,-0.0258,-0.0199,-0.016,-0.0114,-0.0054,-0.0013,0.0009,0.0017,0.0084,0.0057,0.0054,0.0057,0.0116,0.0118,0.0121,0.0091,0.0091,0.0091,0,0,-0.047,-0.0451,-0.045,-0.0426,-0.0388,-0.0356,-0.0352,-0.0301,-0.0274,-0.0236,-0.0188,-0.014,-0.0073,-0.0024,0.0008,0.0014,0.0065,0.0026,0.0008,0.0063,0.0066,0.0069,0.0117,0.0124,0.0025,0.0025,0.0025,0,-0.0486,-0.0479,-0.0444,-0.0434,-0.0419,-0.0369,-0.0364,-0.0328,-0.0269,-0.0248,-0.0231,-0.0126,-0.0075,-0.0016,-0.0012,0.001,0.0044,0.0017,0.006,0.0064,0.0068,0.0115,0.0124,0.0023,0.0023,0.0024,0.0024,0,-0.0501,-0.0496,-0.0494,-0.0467,-0.0445,-0.0434,-0.0385,-0.036,-0.0325,-0.0284,-0.0224,-0.0154,-0.0092,-0.0067,-0.0035,0.0017,0.0033,0.0048,0.0068,0.0068,0.0118,0.0128,0.002,0.0021,0.0021,0.0022,0,0,-0.0542,-0.0512,-0.0513,-0.0512,-0.0465,-0.0452,-0.0422,-0.0379,-0.0359,-0.0295,-0.026,-0.0175,-0.0137,-0.0099,-0.0048,0.0004,0.0062,0.0032,0.0036,0.0077,0.018,0.0208,0.0222,0.0084,0.0085,0.0087,0.0203,0,-0.0566,-0.057,-0.0539,-0.0541,-0.0542,-0.0492,-0.0469,-0.0423,-0.0373,-0.0325,-0.0245,-0.0193,-0.0149,-0.0121,-0.0061,0.0032,0.0087,0.0029,0.0176,0.0181,0.0204,0.0234,0.0203,0.0306,0.0213,0.0215,0.0216,0,-0.0591,-0.0593,-0.0605,-0.0588,-0.0582,-0.0571,-0.0533,-0.0503,-0.0422,-0.0382,-0.0311,-0.0247,-0.0158,-0.0127,0.0034,-0.0007,0.008,0.0153,0.0159,0.0209,0.0228,0.0293,0.0328,0.0233,0.0232,0.0231,0.0229,0,-0.0648,-0.0637,-0.0654,-0.0649,-0.0617,-0.0613,-0.0592,-0.0526,-0.0499,-0.0419,-0.0387,-0.0274,-0.021,-0.0093,0.006,0.0046,0.0239,0.0238,0.0348,0.0351,0.0367,0.0369,0.0352,0.0352,0.0352,0.0352,0.0351,0,-0.0689,-0.0701,-0.0687,-0.0698,-0.0718,-0.0672,-0.0668,-0.0627,-0.056,-0.0519,-0.0426,-0.0362,-0.0197,-0.0066,0.0056,0.0242,0.024,0.0358,0.039,0.035,0.0348,0.0316,0.0311,0.0356,0.0355,0.0354,0.0353,0,-0.0747,-0.0734,-0.0758,-0.0748,-0.0747,-0.0764,-0.0732,-0.072,-0.0649,-0.0592,-0.057,-0.0415,-0.024,-0.0068,0.0145,0.0246,0.0409,0.0475,0.0415,0.0438,0.0481,0.0471,0.0599,0.0601,0.0603,0.0605,0.0606,0,-0.0775,-0.0794,-0.0813,-0.0835,-0.0834,-0.0844,-0.0846,-0.0781,-0.0753,-0.0614,-0.0587,-0.0407,-0.0263,0.0052,0.0261,0.0485,0.0483,0.0579,0.055,0.0491,0.0509,0.0497,0.0485,0.0552,0.0553,0.0553,0.0554,0,-0.0831,-0.0839,-0.0862,-0.0916,-0.0935,-0.0951,-0.0938,-0.093,-0.0828,-0.0756,-0.0617,-0.049,-0.0167,0.0085,0.0377,0.05,0.0535,0.0598,0.0576,0.0488,0.0455,0.047,0.0459,0.0559,0.0558,0.0558,0.0558,0.0558,-0.0871,-0.0909,-0.0944,-0.0989,-0.1021,-0.1046,-0.1046,-0.1009,-0.0957,-0.082,-0.067,-0.0452,-0.0176,0.0231,0.0438,0.0621,0.062,0.0655,0.065,0.0645,0.0613,0.0584,0.0706,0.0706,0.0707,0.0707,0.0707,0,-0.0913,-0.0952,-0.1009,-0.1061,-0.1102,-0.11,-0.1092,-0.1052,-0.0987,-0.0839,-0.0681,-0.0368,-0.0074,0.0204,0.0502,0.0682,0.0656,0.0701,0.0631,0.0625,0.0621,0.0584,0.0672,0.0672,0.0672,0.0672,0,0,-0.0935,-0.0998,-0.1029,-0.1111,-0.1143,-0.1161,-0.1151,-0.1081,-0.0964,-0.0805,-0.0639,-0.0419,-0.0054,0.014,0.0378,0.0535,0.0526,0.0542,0.0554,0.0439,0.0432,0.0583,0.052,0,0,0,0,0]}],[{"header":{"parameterUnit":"m.s-1","parameterCategory":2,"la1":30.2991,"la2":30.254,"lo1":-89.0895,"lo2":-89.0444,"dy":0.0017,"dx":0.0017,"nx":28,"ny":28,"refTime":"2024-10-22T03:00:00:Z","depth":"4","parameterNumber":2,"parameterNumberName":"U-component_of_CURRENTS"},"data":[0,0,0,0,0,0,0,0,0,0,0,0,0,0,0,0,0,0,0,0,0,0,0,0,0,0,0,0,0,0,0,0,0,0,0,0,0,0,0,0,0,0,0,0,0,0,0,0,0,0,0,0,0,0,0,0,0,0,-0.1668,-0.1669,0,-0.1752,-0.1753,-0.1754,-0.1799,-0.1799,-0.18,-0.18,-0.187,-0.1872,-0.1873,0,0,0,0,0,0,0,0,0,0,0,0,0,-0.1539,-0.1541,-0.1668,-0.1669,-0.1671,-0.1752,-0.1753,-0.1754,-0.1799,-0.1799,-0.18,-0.18,-0.187,-0.1871,-0.1873,0,0,0,0,0,0,0,0,0,0,0,0,0,-0.1604,-0.1541,-0.1668,-0.1704,-0.1709,-0.1752,-0.1753,-0.1754,-0.1799,-0.1799,-0.18,-0.18,-0.1869,-0.1871,-0.1874,-0.1879,0,0,-0.1881,-0.1882,0,0,0,0,0,0,0,0,-0.16,-0.1609,-0.1698,-0.1702,-0.1707,-0.1767,-0.1733,-0.1796,-0.1799,-0.1762,-0.18,-0.1801,-0.1836,-0.1841,-0.1853,-0.1883,-0.1886,-0.1881,-0.1883,-0.1884,-0.1884,0,0,0,0,0,0,0,-0.1596,-0.1605,-0.1699,-0.1699,-0.1705,-0.1714,-0.1724,-0.1745,-0.1794,-0.1766,-0.177,-0.1782,-0.1838,-0.185,-0.1855,-0.1887,-0.1881,-0.1883,-0.1885,-0.1886,-0.1977,-0.1978,0,0,0,0,0,0,-0.159,-0.1601,-0.1697,-0.1702,-0.1656,-0.1716,-0.1727,-0.1746,-0.1794,-0.1802,-0.1782,-0.1784,-0.1846,-0.1852,-0.1857,-0.1933,-0.1884,-0.1886,-0.1887,-0.1976,-0.1977,-0.1978,0,0,0,0,0,0,-0.1587,-0.1598,-0.1693,-0.1654,-0.1668,-0.1718,-0.1739,-0.1747,-0.1791,-0.1807,-0.1814,-0.1821,-0.1847,-0.1854,-0.1902,-0.1933,-0.1887,-0.1889,-0.1975,-0.1976,-0.1977,-0.2041,0,0,0,0,0,0,-0.1583,-0.1596,-0.1625,-0.1654,-0.167,-0.1735,-0.1739,-0.1749,-0.1797,-0.1802,-0.1842,-0.1847,-0.1847,-0.1898,-0.1904,-0.1935,-0.1891,-0.1973,-0.1975,-0.1977,-0.2038,-0.2044,-0.205,0,0,0,0,0,-0.1578,-0.161,-0.1626,-0.1639,-0.1702,-0.1736,-0.1745,-0.178,-0.1799,-0.1821,-0.1851,-0.1847,-0.1914,-0.1901,-0.1908,-0.1941,-0.1972,-0.1975,-0.1977,-0.2035,-0.2043,-0.205,0,0,0,0,0,0,-0.1578,-0.1619,-0.1637,-0.1683,-0.1715,-0.1745,-0.1779,-0.1799,-0.1841,-0.1857,-0.1867,-0.1875,-0.1925,-0.1923,-0.1909,-0.197,-0.194,-0.1943,-0.1981,-0.1989,-0.1996,-0.1988,-0.1893,0,0,0,0,0,-0.1589,-0.162,-0.1657,-0.1697,-0.1718,-0.1754,-0.1781,-0.1804,-0.1837,-0.1858,-0.1885,-0.1912,-0.1934,-0.1956,-0.1972,-0.2013,-0.1985,-0.2035,-0.2041,-0.2047,-0.2044,-0.2028,-0.2033,-0.1985,-0.1985,-0.1985,0,0,-0.1601,-0.1628,-0.1649,-0.1699,-0.1731,-0.1769,-0.1772,-0.1821,-0.1858,-0.1858,-0.1927,-0.194,-0.1949,-0.1992,-0.2014,-0.2,-0.2045,-0.2049,-0.2054,-0.2048,-0.2031,-0.2035,-0.2039,-0.1987,-0.1986,-0.1986,0,0,-0.1627,-0.1666,-0.1699,-0.1729,-0.1781,-0.1802,-0.1822,-0.187,-0.19,-0.1958,-0.1963,-0.1994,-0.2042,-0.2047,-0.2056,-0.2107,-0.2078,-0.2118,-0.2151,-0.2137,-0.214,-0.2143,-0.2111,-0.2111,-0.2123,-0.2123,-0.2124,0,-0.1645,-0.1687,-0.1714,-0.1754,-0.1784,-0.182,-0.186,-0.1897,-0.1955,-0.1974,-0.199,-0.2048,-0.2064,-0.2096,-0.2118,-0.2122,-0.2102,-0.2124,-0.2144,-0.2147,-0.2148,-0.2115,-0.2114,-0.2127,-0.2126,-0.2126,-0.2126,0,-0.1683,-0.173,-0.1755,-0.1812,-0.1848,-0.1888,-0.1935,-0.1978,-0.202,-0.2045,-0.2097,-0.2118,-0.2142,-0.2159,-0.2162,-0.2185,-0.2163,-0.2153,-0.2124,-0.2157,-0.212,-0.2117,-0.2132,-0.213,-0.2129,-0.2129,0,0,-0.1678,-0.1765,-0.1775,-0.1807,-0.1881,-0.1907,-0.1974,-0.2023,-0.2057,-0.2116,-0.2149,-0.22,-0.2203,-0.2212,-0.2216,-0.2216,-0.2219,-0.22,-0.2198,-0.2167,-0.2177,-0.2035,-0.2017,-0.2217,-0.2217,-0.2217,-0.2145,0,-0.17,-0.1769,-0.1811,-0.188,-0.1915,-0.1966,-0.2017,-0.2069,-0.2111,-0.2152,-0.2178,-0.2214,-0.2226,-0.2241,-0.2246,-0.2226,-0.2216,-0.2239,-0.2151,-0.2148,-0.2016,-0.2011,-0.2217,-0.2143,-0.2142,-0.2142,-0.2142,0,-0.1709,-0.1756,-0.1824,-0.1898,-0.1921,-0.1972,-0.2037,-0.2088,-0.2147,-0.2179,-0.2215,-0.2232,-0.2255,-0.2255,-0.2235,-0.2252,-0.222,-0.22,-0.2197,-0.2036,-0.2,-0.2104,-0.2136,-0.2136,-0.2137,-0.2137,-0.2138,0,-0.1655,-0.1754,-0.1805,-0.1835,-0.1933,-0.1974,-0.2027,-0.2095,-0.2131,-0.2191,-0.2213,-0.2242,-0.2253,-0.2235,-0.2206,-0.2224,-0.216,-0.2171,-0.2007,-0.1997,-0.2121,-0.2119,-0.2139,-0.2139,-0.2139,-0.2139,-0.2139,0,-0.1629,-0.1672,-0.1791,-0.1817,-0.1876,-0.1955,-0.2013,-0.2067,-0.2134,-0.2147,-0.222,-0.2213,-0.2251,-0.2222,-0.2196,-0.2077,-0.2145,-0.1997,-0.1963,-0.2149,-0.2151,-0.2118,-0.2117,-0.2136,-0.2137,-0.2137,-0.2138,0,-0.1549,-0.163,-0.1695,-0.1813,-0.1852,-0.1894,-0.2002,-0.2024,-0.2112,-0.2127,-0.2146,-0.2193,-0.2142,-0.2146,-0.2097,-0.2035,-0.1955,-0.1894,-0.2076,-0.2057,-0.1807,-0.181,-0.1703,-0.1697,-0.1692,-0.1688,-0.1685,0,-0.1506,-0.1536,-0.1673,-0.1703,-0.1761,-0.1841,-0.1876,-0.1993,-0.2005,-0.2078,-0.2054,-0.2058,-0.206,-0.1867,-0.1903,-0.1817,-0.1801,-0.1757,-0.18,-0.1781,-0.176,-0.1771,-0.1781,-0.1677,-0.1676,-0.1674,-0.1673,0,-0.1419,-0.1487,-0.1536,-0.1601,-0.1656,-0.1706,-0.1768,-0.177,-0.1865,-0.1974,-0.1892,-0.1853,-0.1787,-0.1743,-0.1684,-0.1634,-0.179,-0.1706,-0.1717,-0.1757,-0.1748,-0.1735,-0.175,-0.1656,-0.1659,-0.166,-0.1661,0,-0.1347,-0.1359,-0.1427,-0.1464,-0.1528,-0.1524,-0.1592,-0.1589,-0.1626,-0.1721,-0.1679,-0.1686,-0.1742,-0.1643,-0.1588,-0.1526,-0.1515,-0.1481,-0.1504,-0.1523,-0.15,-0.1464,-0.1237,0,0,0,0,0,-0.1263,-0.125,-0.1274,-0.1301,-0.1355,-0.1387,-0.1481,-0.1547,-0.1654,-0.1542,-0.1609,-0.1534,-0.1456,-0.1473,-0.1367,-0.1514,-0.1526,-0.1389,-0.1502,-0.1562,-0.1582,-0.1573,0,0,0,0,0,0,-0.1199,-0.122,-0.122,-0.1145,-0.1127,-0.1163,-0.1218,-0.13,-0.1255,-0.1371,-0.1329,-0.1428,-0.137,-0.1464,-0.1323,-0.1329,-0.1368,-0.1417,-0.1412,-0.1551,-0.1569,-0.1585,-0.1583,0,0,0,0,0]},{"header":{"parameterUnit":"m.s-1","parameterCategory":2,"la1":30.2991,"la2":30.254,"lo1":-89.0895,"lo2":-89.0444,"dy":0.0017,"dx":0.0017,"nx":28,"ny":28,"refTime":"2024-10-22T03:00:00:Z","depth":"4","parameterNumber":3,"parameterNumberName":"V-component_of_CURRENTS"},"data":[0,0,0,0,0,0,0,0,0,0,0,0,0,0,0,0,0,0,0,0,0,0,0,0,0,0,0,0,0,0,0,0,0,0,0,0,0,0,0,0,0,0,0,0,0,0,0,0,0,0,0,0,0,0,0,0,0,0,-0.0296,-0.0296,0,-0.0241,-0.024,-0.024,-0.0206,-0.0205,-0.0205,-0.0205,-0.0132,-0.0131,-0.0129,0,0,0,0,0,0,0,0,0,0,0,0,0,-0.0334,-0.0334,-0.0296,-0.0296,-0.0295,-0.0241,-0.024,-0.024,-0.0206,-0.0205,-0.0205,-0.0205,-0.0133,-0.0131,-0.0129,0,0,0,0,0,0,0,0,0,0,0,0,0,-0.0303,-0.0334,-0.0296,-0.0271,-0.0268,-0.0241,-0.024,-0.0239,-0.0206,-0.0205,-0.0205,-0.0205,-0.0134,-0.0131,-0.0129,-0.0119,0,0,-0.0121,-0.012,0,0,0,0,0,0,0,0,-0.0305,-0.0301,-0.0276,-0.0273,-0.027,-0.023,-0.0227,-0.0198,-0.0206,-0.023,-0.0205,-0.0205,-0.0163,-0.0158,-0.0149,-0.0115,-0.0112,-0.012,-0.0119,-0.0118,-0.0117,0,0,0,0,0,0,0,-0.0307,-0.0303,-0.0275,-0.0275,-0.0271,-0.025,-0.0245,-0.0221,-0.0199,-0.0228,-0.0225,-0.0218,-0.0162,-0.0152,-0.0147,-0.0111,-0.012,-0.0118,-0.0117,-0.0116,-0.0049,-0.0049,0,0,0,0,0,0,-0.0316,-0.0306,-0.0276,-0.0273,-0.0286,-0.0249,-0.0244,-0.0243,-0.0199,-0.0193,-0.0219,-0.0217,-0.0156,-0.015,-0.0145,-0.0112,-0.0118,-0.0115,-0.0114,-0.0049,-0.0049,-0.0049,0,0,0,0,0,0,-0.0317,-0.0314,-0.0279,-0.0287,-0.0281,-0.0249,-0.0248,-0.0242,-0.0232,-0.0193,-0.0186,-0.0215,-0.0156,-0.0148,-0.0123,-0.011,-0.0114,-0.0112,-0.0049,-0.0049,-0.0049,-0.0059,0,0,0,0,0,0,-0.0318,-0.0315,-0.0318,-0.0288,-0.0281,-0.0264,-0.0248,-0.0241,-0.0229,-0.0226,-0.0187,-0.018,-0.0155,-0.0127,-0.012,-0.0106,-0.011,-0.005,-0.0049,-0.0049,-0.0058,-0.0059,-0.0059,0,0,0,0,0,-0.032,-0.0323,-0.0318,-0.0315,-0.0287,-0.0264,-0.0259,-0.0235,-0.0229,-0.0225,-0.0199,-0.0181,-0.0119,-0.0125,-0.0117,-0.0102,-0.005,-0.0049,-0.0049,-0.0058,-0.0059,-0.0059,0,0,0,0,0,0,-0.0338,-0.0319,-0.0313,-0.031,-0.0291,-0.0259,-0.0253,-0.0239,-0.0216,-0.0215,-0.018,-0.017,-0.0141,-0.0125,-0.0132,-0.0082,-0.0081,-0.0079,-0.0091,-0.0091,-0.0091,-0.0093,-0.0108,0,0,0,0,0,-0.0346,-0.0348,-0.0321,-0.0321,-0.0312,-0.0286,-0.0275,-0.026,-0.0234,-0.0224,-0.0196,-0.0166,-0.0133,-0.0117,-0.0089,-0.0065,-0.0039,-0.0051,-0.0051,-0.0051,-0.0048,0.0005,0.001,-0.0047,-0.0047,-0.0047,0,0,-0.0355,-0.0344,-0.0346,-0.0326,-0.031,-0.0297,-0.0278,-0.0265,-0.0251,-0.022,-0.0195,-0.0167,-0.0128,-0.0097,-0.0082,-0.0081,-0.0023,-0.0051,-0.0051,-0.0048,0.0006,0.0012,0.0017,-0.0047,-0.0047,-0.0047,0,0,-0.0369,-0.0364,-0.0366,-0.0352,-0.0331,-0.0311,-0.0309,-0.0279,-0.0262,-0.0239,-0.0207,-0.017,-0.0133,-0.0092,-0.0068,-0.0054,-0.0026,-0.0051,-0.005,0.0001,0.0007,0.0012,0.0044,0.0052,-0.005,-0.005,-0.005,0,-0.0381,-0.0379,-0.0363,-0.0356,-0.0347,-0.0319,-0.0314,-0.029,-0.0255,-0.0239,-0.0235,-0.0159,-0.0125,-0.0069,-0.0062,-0.0051,-0.003,-0.0052,0.0002,0.0008,0.0013,0.0045,0.0054,-0.0051,-0.0051,-0.0051,-0.0051,0,-0.0388,-0.0389,-0.0388,-0.0373,-0.036,-0.0353,-0.032,-0.0303,-0.0284,-0.0255,-0.0207,-0.0157,-0.0111,-0.0091,-0.007,-0.0014,-0.0014,-0.0005,0.0003,0.0018,0.005,0.006,-0.0051,-0.0051,-0.0051,-0.0051,0,0,-0.0414,-0.0398,-0.04,-0.04,-0.0371,-0.0363,-0.0338,-0.0304,-0.0289,-0.0244,-0.0214,-0.0143,-0.0117,-0.0089,-0.0052,-0.0002,0.0057,0.0008,0.0011,0.004,0.0156,0.0127,0.0135,0.0074,0.0076,0.0077,0.016,0,-0.0426,-0.043,-0.0411,-0.0412,-0.0412,-0.038,-0.0361,-0.0327,-0.0293,-0.0257,-0.019,-0.0151,-0.0116,-0.0097,-0.0037,0.0029,0.0083,0.0033,0.0136,0.0139,0.0113,0.0146,0.0083,0.0167,0.0169,0.0171,0.0172,0,-0.0438,-0.0441,-0.0451,-0.0441,-0.0437,-0.0432,-0.0404,-0.0381,-0.0317,-0.029,-0.023,-0.0183,-0.01,-0.008,0.0056,0.0019,0.0088,0.0143,0.0147,0.0132,0.0129,0.0151,0.019,0.0188,0.0187,0.0186,0.0185,0,-0.0473,-0.0468,-0.0482,-0.0479,-0.046,-0.046,-0.0447,-0.0397,-0.038,-0.0314,-0.0296,-0.0192,-0.0146,-0.0042,0.0071,0.0064,0.0215,0.0219,0.0263,0.0261,0.0266,0.0259,0.0325,0.0325,0.0324,0.0324,0.0324,0,-0.0491,-0.0504,-0.0507,-0.0516,-0.0536,-0.0504,-0.0508,-0.0477,-0.0428,-0.0405,-0.0322,-0.0278,-0.0133,-0.0033,0.0069,0.0191,0.0217,0.0272,0.0288,0.0257,0.0249,0.0272,0.0265,0.0327,0.0327,0.0326,0.0325,0,-0.0524,-0.0523,-0.0547,-0.055,-0.0557,-0.0574,-0.0566,-0.0561,-0.051,-0.0476,-0.0459,-0.0335,-0.0204,-0.0062,0.0113,0.018,0.0302,0.0342,0.0291,0.03,0.0313,0.0304,0.0395,0.0395,0.0395,0.0395,0.0395,0,-0.0538,-0.0555,-0.0591,-0.062,-0.0628,-0.0647,-0.066,-0.0616,-0.0602,-0.0508,-0.0493,-0.036,-0.0267,-0.0046,0.0104,0.0293,0.032,0.037,0.0356,0.0318,0.0324,0.0316,0.0307,0.0394,0.0394,0.0394,0.0394,0,-0.0568,-0.059,-0.0614,-0.068,-0.0713,-0.0739,-0.0747,-0.0739,-0.0672,-0.0626,-0.0513,-0.0383,-0.0231,-0.0052,0.0097,0.0234,0.0327,0.0369,0.0371,0.0357,0.0318,0.0323,0.0315,0.0394,0.0394,0.0394,0.0394,0,-0.0597,-0.0631,-0.0677,-0.0726,-0.0781,-0.0813,-0.0807,-0.0771,-0.074,-0.0619,-0.058,-0.04,-0.0279,-0.0081,0.0057,0.0185,0.0214,0.0239,0.0247,0.0249,0.0179,0.0106,0.014,0,0,0,0,0,-0.0617,-0.0657,-0.0716,-0.077,-0.0828,-0.0849,-0.0856,-0.0833,-0.0763,-0.0695,-0.063,-0.0483,-0.0253,-0.0145,-0.0022,0.0039,0.022,0.0184,0.0247,0.0391,0.0392,0.0332,0,0,0,0,0,0,-0.0632,-0.0692,-0.072,-0.0798,-0.0837,-0.0888,-0.0893,-0.0845,-0.0791,-0.0703,-0.0578,-0.0474,-0.0252,-0.0323,-0.0024,0.0018,0.0068,0.0307,0.0309,0.0391,0.0392,0.0392,0.033,0,0,0,0,0]}]]